Location: Burtuca
(46.0167°N, 23.0667°E)
Time: 10:46:26
(UTC+00:00)

Daily predictions for brighter satellites

Satellite Brightness Start Highest point End
(mag) Time Altitude Azimuth Time Altitude Azimuth Time Altitude Azimuth
Cosmos 2233 Rocket 4.1 15:16:47 10° S 15:22:57 61° E 15:29:11 10° NNE
Cosmos 1725 Rocket 4.1 15:17:33 10° S 15:23:49 88° E 15:30:11 10° N
Cosmos 2061 Rocket 4.1 15:18:59 10° S 15:25:07 57° E 15:31:13 10° NNE
Iridium 4 Rocket 3.7 15:20:39 10° S 15:25:45 72° W 15:30:25 10° N
Cosmos 407 Rocket 4.1 15:23:43 10° SSE 15:28:25 36° ESE 15:33:05 10° NE
CBERS-1 4.2 15:24:04 10° SSE 15:29:11 82° WSW 15:34:20 10° NNW
Cosmos 1484 Rocket 3.1 15:25:59 10° S 15:29:26 63° WSW 15:32:58 10° NNW
RESURS DK-1 2.9 15:30:40 10° NNW 15:34:20 33° NE 15:37:58 10° ESE
Cosmos 1782 Rocket 3.5 15:32:56 10° S 15:37:21 81° E 15:41:48 10° N
SPOT 1/Viking Rocket 4.5 15:33:55 10° ESE 15:38:06 26° ENE 15:42:19 10° N
ISS -3.6 15:38:02 10° SW 15:41:20 60° SSE 15:44:16 13° ENE
Cosmos 1300 Rocket 3.7 15:37:16 10° S 15:41:39 82° W 15:46:03 10° N
Cosmos 1869 3.6 15:38:58 10° SSE 15:42:11 35° E 15:45:25 10° NNE
CZ-2D R/B 3.0 15:39:43 10° SSE 15:42:44 44° ENE 15:45:46 10° N
COSMO-SKYMED 1 4.1 15:45:04 11° ENE 15:47:12 15° E 15:49:40 10° SE
SJ-12 3.8 15:43:33 10° SSE 15:47:15 53° ENE 15:50:58 10° N
IGS 5A 3.9 15:43:36 10° S 15:47:33 64° W 15:51:33 10° NNW
AQUARIUS 4.3 15:44:34 10° SE 15:48:47 47° ENE 15:53:02 10° N
Cosmos 540 Rocket 3.6 15:45:04 10° NNW 15:50:04 50° ENE 15:55:02 10° SE
Cosmos 1763 Rocket 3.4 15:50:11 10° NNW 15:55:23 65° ENE 16:00:29 10° SSE
Cosmos 1400 Rocket 4.2 15:53:09 10° SE 15:55:41 17° E 15:56:33 16° ENE
Cosmos 1975 Rocket 3.0 15:52:03 10° N 15:56:25 88° E 16:00:47 10° S
CORIOLIS 4.3 15:51:58 10° SSE 15:57:20 80° WSW 16:02:43 10° NNW
Cosmos 1140 Rocket 3.9 15:55:17 10° SSW 16:00:25 64° WNW 16:05:34 10° NNE
IRS-1C 4.1 15:57:20 10° SSE 16:02:40 89° ENE 16:08:01 10° NNW
Cosmos 2151 Rocket 4.4 15:59:44 10° SSE 16:03:35 29° E 16:07:29 10° NNE
SMAP 3.4 15:59:11 10° S 16:03:50 72° WSW 16:08:30 10° NNW
Cosmos 1812 2.5 16:01:09 10° SSE 16:03:51 36° E 16:05:45 16° NNE
Cosmos 44 Rocket 3.4 15:59:57 10° SSW 16:04:34 53° ESE 16:08:29 15° NE
Cosmos 1943 Rocket 2.2 16:01:04 10° SSW 16:06:37 67° ESE 16:12:10 10° NNE
Cosmos 2058 3.2 16:04:14 10° N 16:08:00 39° ENE 16:11:44 10° SSE
Cosmos 2082 Rocket 2.4 16:06:30 10° NNW 16:11:57 49° ENE 16:17:23 10° SE
SKYMED 2 4.0 16:09:06 10° NNE 16:13:14 41° E 16:17:20 10° S
Okean 1 Rocket 4.1 16:10:15 10° SE 16:13:45 24° E 16:14:36 22° ENE
Aureole 3 Rocket 2.2 16:11:08 10° S 16:14:06 55° E 16:16:59 12° NNE
Cosmos 2278 Rocket 2.1 16:09:25 10° SSW 16:15:03 74° ESE 16:20:43 10° NNE
CZ-2D R/B 3.7 16:11:24 10° SE 16:15:19 43° ENE 16:19:20 10° N
Landsat 7 4.0 16:11:40 10° S 16:16:18 75° WSW 16:20:59 10° NNW
PSLV R/B 4.1 16:13:05 10° SE 16:16:40 32° ENE 16:20:16 10° N
Helios 1A Rocket 3.3 16:18:18 28° E 16:18:20 28° E 16:21:17 10° SSE
SL-16 R/B 4.0 16:16:06 10° N 16:21:45 37° WNW 16:27:22 10° SW
Cosmos 1513 Rocket 4.5 16:16:22 10° S 16:22:41 74° E 16:29:05 10° NNE
Cosmos 2251 Rocket 3.5 16:22:11 10° S 16:27:24 65° ESE 16:32:12 13° NNE
Cosmos 2344 4.2 16:23:54 10° NW 16:31:18 45° NE 16:37:27 21° E
SL-19 R/B 4.1 16:26:58 10° SE 16:32:00 53° ENE 16:37:05 10° N
Cosmos 371 Rocket 3.7 16:28:38 10° S 16:33:02 38° ESE 16:34:20 31° ENE
CZ-4C R/B 4.2 16:30:15 10° NW 16:33:39 17° NNW 16:37:35 10° NNE
YAOGAN 1 2.6 16:29:43 10° SSE 16:33:50 51° ENE 16:37:59 10° N
Cosmos 304 Rocket 4.1 16:29:54 10° S 16:34:18 40° ESE 16:35:37 32° ENE
Cosmos 841 Rocket 3.9 16:30:00 10° N 16:34:57 40° ENE 16:37:10 27° ESE
Nadezhda 4 Rocket 3.9 16:29:57 10° N 16:36:12 63° ENE 16:42:21 10° SSE
ATLAS 2AS CENTAUR R/B 3.6 16:30:27 10° NNW 16:36:12 28° NNE 16:38:09 24° NE
SJ 16-02 1.4 16:33:25 10° S 16:37:37 52° ESE 16:39:06 35° NE
COSMOS 2406 3.4 16:39:01 10° NNW 16:44:32 49° ENE 16:47:01 30° ESE
ARIANE 5 R/B 4.0 16:40:42 10° SSW 16:45:17 37° W 16:49:56 10° NNW
Resurs 1-3 3.4 16:41:23 10° SSE 16:45:38 64° ENE 16:49:54 10° N
Cosmos 1656 Rocket 4.2 16:41:53 10° S 16:46:51 35° ESE 16:47:09 35° E
Cosmos 468 Rocket 4.0 16:43:21 10° NNW 16:48:35 83° WSW 16:53:43 10° SSE
Cosmos 1862 2.9 16:45:13 10° N 16:48:51 85° E 16:52:29 10° S
USA 215 4.1 16:44:49 10° SSE 16:51:06 49° SW 16:57:24 10° WNW
Cosmos 1428 Rocket 4.4 16:49:39 10° N 16:55:57 73° E 17:02:14 10° SSE
Cosmos 489 Rocket 4.3 16:51:42 10° NNW 16:58:00 78° ENE 17:04:12 10° SSE
MOS 1 Rocket 4.2 16:54:07 10° S 16:58:14 45° W 17:02:32 10° NNW
Cosmos 1536 Rocket 3.6 16:53:48 10° N 16:58:15 80° W 17:02:38 10° S
Okean 2 Rocket 2.9 16:53:55 10° S 16:58:18 83° E 17:00:34 28° NNE
Cosmos 1190 Rocket 4.0 16:53:12 10° SSW 16:58:30 82° WNW 17:02:13 20° NNE
Cosmos 676 Rocket 3.9 16:56:09 10° S 17:01:24 67° ESE 17:03:00 44° NE
Meteor 2-3 Rocket 3.7 16:58:35 10° N 17:04:15 60° ENE 17:07:28 25° SSE
Resurs 01 Rocket 3.6 17:08:57 17° N 17:08:57 17° N 17:10:00 10° N
Cosmos 1954 Rocket 4.0 17:06:14 10° SSW 17:11:30 79° WNW 17:14:07 31° NNE
USA 281 3.4 17:15:07 46° ENE 17:15:22 46° NE 17:21:35 10° NNW
BlueWalker 3 4.3 17:13:50 10° SSW 17:14:33 14° S 17:14:33 14° S
SPOT 1/Viking Rocket 4.5 17:12:12 10° S 17:17:10 48° W 17:22:12 10° NNW
ISS -1.9 17:15:06 10° W 17:17:12 29° NW 17:17:12 29° NW
COSMO-SKYMED 1 3.2 17:21:26 35° NNW 17:22:50 51° WNW 17:26:49 10° SSW
Cosmos 1634 Rocket 4.4 17:18:31 10° S 17:33:07 - NNE 17:22:50 43° SE
Cosmos 1400 Rocket 4.1 17:27:20 10° SW 17:30:52 35° WNW 17:31:13 35° WNW
BREEZE-M DEB (TANK) 3.2 17:29:12 10° W 17:32:21 62° N 17:32:21 62° N
Cosmos 2034 Rocket 4.2 17:31:01 10° SSW 17:37:11 67° W 17:43:26 10° N
Cosmos 1943 Rocket 4.2 17:46:22 10° W 17:50:50 24° NW 17:54:09 15° N
Cosmos 1092 Rocket 4.1 17:46:46 10° NNW 17:53:00 72° W 17:54:59 45° SSW
Cosmos 2082 Rocket 4.0 17:51:03 10° NW 17:55:44 28° WSW 18:00:24 10° SSW
Cosmos 2026 Rocket 4.4 17:53:30 10° NNW 17:59:26 57° W 18:05:26 10° S
Cosmos 2278 Rocket 4.3 17:55:21 10° W 17:59:43 22° NW 18:02:47 15° N
BREEZE-M DEB (TANK) 4.3 18:00:30 10° W 18:03:16 54° NW 18:03:16 54° NW
Cosmos 2369 Rocket 4.3 18:03:23 10° SSW 18:04:20 15° SSW 18:04:20 15° SSW
SJ 16-02 3.9 18:13:04 10° W 18:15:42 18° WNW 18:15:42 18° WNW
ATLAS 2AS CENTAUR R/B 3.5 18:21:13 10° NW 18:25:35 43° NW 18:25:35 43° NW
Cosmos 2344 4.4 18:38:02 10° NW 18:46:08 58° WSW 18:47:32 54° SSW
